Regional Weather Roundup
Issued by NWS New Orleans/Baton Rouge, LA

Home | Current Version | Previous Version | Graphics & Text | Print | Product List | Glossary On
Versions: 1 2 3 4 5 6 7 8 9 10 11 12 13 14 15 16 17 18 19 20 21 22 23 24 25 26 27 28 29 30 31 32 33 34 35 36 37 38 39 40 41 42 43 44 45 46 47 48 49 50
303
ASUS44 KLIX 200001
RWRLIX
NEW ORLEANS REGIONAL WEATHER ROUNDUP
NATIONAL WEATHER SERVICE NEW ORLEANS LA
700 PM CDT SAT APR 19 2014

NOTE: "FAIR" INDICATES FEW OR NO CLOUDS BELOW 12,000 FEET WITH NO
      SIGNIFICANT WEATHER AND/OR OBSTRUCTIONS TO VISIBILITY.
      SKY/WX - SKY CONDITION AND SIGNIFICANT WEATHER.
      TMP - AIR TEMPERATURE.     DP    - DEWPOINT TEMPERATURE.
      RH  - RELATIVE HUMIDITY.   PRES  - PRESSURE.
      HI  - HEAT INDEX.          WCI   - WIND CHILL INDEX.

*  THESE STATIONS ARE NOT NWS OR FAA STATIONS AND ARE NOT UNDER
   NWS QUALITY CONTROL.

LAZ038-040-048-061>063-065>067-069-200100-
SOUTHEAST LOUISIANA

CITY           SKY/WX    TMP DP  RH WIND       PRES   REMARKS
N.O. AUDUBON     N/A     76  53  44 MISG        N/A
6HR MIN TEMP:  76; 6HR MAX TEMP:  80;

N.O. INTL ARPT PTCLDY    73  55  53 NW7       30.09R
6HR MIN TEMP:  72; 6HR MAX TEMP:  78;

N.O. LAKEFRONT CLEAR     71  61  70 W8        30.09R
6HR MIN TEMP:  67; 6HR MAX TEMP:  73;

N.O. DOWNTOWN*   N/A     77  48  36 NW6       30.09S
6HR MIN TEMP:  72; 6HR MAX TEMP:  79;

SLIDELL        CLEAR     76  51  41 N5        30.07R
6HR MIN TEMP:  75; 6HR MAX TEMP:  80;

BATON ROUGE    CLEAR     76  53  44 W6        30.09S
6HR MIN TEMP:  76; 6HR MAX TEMP:  82;

BOOTHVILLE     CLEAR     70  60  70 W6        30.09S
6HR MIN TEMP:  65; 6HR MAX TEMP:  74;

BELLE CHASSE   PTCLDY    76  48  37 NW5       30.08R
6HR MIN TEMP:  73; 6HR MAX TEMP:  78;

BOGALUSA*        N/A     76  53  44 N3        30.10R
6HR MIN TEMP:  76; 6HR MAX TEMP:  80;

GALLIANO*      NOT AVBL
NEW ROADS*     NOT AVBL
GONZALES*        N/A     75  55  49 CALM      30.09R
6HR MIN TEMP:  74; 6HR MAX TEMP:  79;

HAMMOND*       NOT AVBL
HOUMA*         CLEAR     75  50  41 N6        30.09S
PORT FOURCHON* CLEAR     70  57  64 SW7       30.12S

$$

MSZ070-080>082-200100-
SOUTHERN MISSISSIPPI

CITY           SKY/WX    TMP DP  RH WIND       PRES   REMARKS
MCCOMB         CLEAR     75  49  39 N6        30.10R
6HR MIN TEMP:  75; 6HR MAX TEMP:  79;

GULFPORT       CLEAR     78  50  37 N10       30.06R
6HR MIN TEMP:  78; 6HR MAX TEMP:  82;

BILOXI         NOT AVBL
PASCAGOULA     CLEAR     74  52  46 N3        30.05R
6HR MIN TEMP:  74; 6HR MAX TEMP:  80;

STENNIS ARPT*  CLEAR     75  50  41 NW8       30.07R

$$

COASTAL OBSERVATIONS
LAKE AND NEARSHORE STATIONS

STATION/POSITION TIME  TEMP    WIND        PRES    WAVE
                       AIR SEA DIR/SP/G            HT/PER
                 (UTC) (F)     (DEG/KT/KT) (MB)    (FT/S)
PASCAGOULA       2300   77     340/  8/ 12 1016.9
WAVELAND YACHT   2300   75 70  360/  7/ 10 1017.2
GRAND ISLE       2300   73 68  290/  6/  7 1019.6
SOUTHWEST PASS   2300   68 59  290/  7/ 11 1019.2
NEW CANAL        2300   75 67  270/  4/  6 1018.9
SHELL BEACH      2300   73 66  310/  5/  6 1018.4

OFFSHORE STATIONS

STATION/POSITION TIME  TEMP    WIND        PRES    WAVE
                       AIR SEA DIR/SP/G            HT/PER
                 (UTC) (F)     (DEG/KT/KT) (MB)    (FT/S)
64 S DAUPHIN ISL 2250   68 71  290/ 14/ 16 1018.0

$$




USA.gov is the U.S. government's official web portal to all federal, state and local government web resources and services.